#timestamp,LO_Frequency,Hit,StdDev 
1626228015.2,286046999.8,N
1626228035.0,286047002.8,N
1626228035.9,286047002.8,N
1626228055.8,286047000.1,N
1626228075.6,286047002.1,N
1626228095.5,286047003.8,N
1626228115.3,286047003.2,N
1626228135.1,286047003.2,N
1626228155.9,286047004.2,N
1626228175.7,286047001.7,N
1626228195.6,286047004.0,N
1626228215.4,286047002.7,N
1626228235.2,286047002.6,N
1626228255.1,286047002.1,N
1626228256.0,286047002.1,N
1626228275.8,286047002.4,N
1626228295.6,286046999.8,N
1626228315.5,286047002.2,N
1626228335.3,286047002.1,N
1626228355.2,286046999.7,N
1626228375.9,286047002.8,N
1626228395.7,286047002.1,N
1626228415.6,286047001.7,N
1626228435.4,286047001.5,N
1626228455.2,286047004.2,N
1626228475.1,286047001.5,N
1626228476.0,286047001.5,N
1626228495.8,286047004.2,Y
1626228515.7,286047002.5,P
1626228535.5,286046999.7,N
1626228555.3,286047000.6,N
1626228575.2,286047000.4,N
1626228595.0,286046998.1,N
1626228595.9,286046998.1,N
1626228615.8,286046998.6,N
1626228635.6,286046998.9,N
1626228655.4,286046998.2,N
1626228675.3,286047000.4,N
1626228695.1,286046998.2,N
1626228715.8,286046999.0,N
1626228735.7,286046998.7,N
1626228755.5,286047000.8,N
1626228775.4,286046998.1,N
1626228795.2,286047000.8,N
1626228815.0,286046998.7,N
1626228815.9,286046998.7,N
1626228835.8,286046998.3,N
1626228855.6,286046999.0,N
1626228875.5,286047000.8,N
1626228895.3,286047000.3,N
1626228915.1,286047002.2,N
1626228935.9,286047002.2,N
1626228955.7,286047002.7,N
1626228975.5,286047001.6,N
1626228995.4,286047004.3,N
1626229015.2,286047003.8,N
1626229035.0,286047004.0,N
1626229036.0,286047004.0,N
1626229055.8,286047004.4,N
1626229075.6,286047001.3,N
1626229095.5,286047004.1,N
1626229115.3,286047003.6,N
1626229135.1,286047005.6,N
1626229155.9,286047004.6,N
1626229175.7,286047004.6,N
1626229195.6,286047006.6,N
1626229215.4,286047007.0,N
1626229235.2,286047007.2,N
1626229255.1,286047006.1,N
1626229256.0,286047006.1,N
1626229275.8,286047009.1,Y
1626229295.7,286047005.6,P
1626229315.5,286047007.1,P
1626229335.3,286047005.5,N
1626229355.2,286047003.0,N
1626229375.0,286047004.1,N
1626229375.9,286047004.1,N
1626229395.7,286047003.5,N
1626229415.6,286047004.9,Y
1626229435.4,286047001.0,P
1626229455.3,286047000.3,N
1626229475.1,286046998.1,N
1626229495.8,286047000.7,N
1626229515.7,286047000.7,N
1626229535.5,286047002.5,N
1626229555.4,286047000.6,N
1626229575.2,286047000.4,N
1626229595.0,286047000.0,N
1626229595.9,286047000.0,N
1626229615.8,286047001.2,N
1626229635.6,286046999.8,N
1626229655.4,286047011.9,Y
1626229675.3,286047002.2,P
1626229695.1,286047001.5,N
1626229715.9,286047004.3,P
1626229735.7,286047001.4,N
1626229755.5,286047001.3,N
1626229775.4,286047003.1,N
1626229795.2,286047003.9,Y
1626229815.0,286047001.0,P
1626229816.0,286047001.0,N
1626229835.8,286046998.6,N
1626229855.6,286047000.6,N
1626229875.5,286046999.2,N
1626229895.3,286046997.0,N
1626229915.1,286046997.9,N
1626229935.9,286046997.1,N
1626229955.7,286046995.3,N
1626229975.6,286046993.7,Y
1626229995.4,286046995.8,P
1626230015.2,286046993.9,P
1626230035.1,286046994.1,N
1626230036.0,286046994.1,N
1626230055.8,286046992.6,Y
1626230075.7,286046996.8,P
1626230095.5,286046997.5,P
1626230115.3,286046995.2,P
1626230135.2,286046996.1,Y
1626230155.9,286046998.8,P
1626230175.7,286046996.8,N
1626230195.6,286046996.5,P
1626230215.4,286046999.5,N
1626230235.3,286046994.9,Y
1626230255.1,286046997.0,P
1626230256.0,286046997.0,P
1626230275.8,286046999.3,N
1626230295.7,286046997.2,Y
1626230315.5,286046998.9,P
1626230335.3,286046998.7,N
1626230355.2,286046998.5,N
1626230375.0,286046998.2,Y
1626230375.9,286046998.2,P
1626230395.8,286047001.1,P
1626230415.6,286046999.0,N
1626230435.5,286046998.3,N
1626230455.3,286046996.6,Y
1626230475.1,286047000.6,P
1626230495.9,286047000.9,N
1626230515.7,286047000.5,N
1626230535.5,286047001.2,N
1626230555.4,286046998.3,N
1626230575.2,286047000.9,N
1626230595.1,286047001.1,N
1626230596.0,286047001.1,N
1626230615.8,286046998.8,N
1626230635.6,286046998.5,N
1626230655.5,286047002.8,N
1626230675.3,286047002.1,N
1626230695.1,286047001.8,N
1626230715.9,286047001.3,N
1626230735.7,286047007.5,Y
1626230755.6,286047008.6,P
1626230775.4,286047006.2,N
1626230795.2,286047006.4,N
1626230815.1,286047007.0,N
1626230816.0,286047007.0,N
1626230835.8,286047007.2,N
1626230855.6,286047005.2,N
1626230875.5,286047005.1,N
1626230895.3,286047005.4,N
1626230915.2,286047007.5,Y
1626230935.9,286047000.9,P
1626230955.7,286046998.7,N
1626230975.6,286046998.4,N
1626230995.4,286046999.1,N
1626231015.2,286046998.8,N
1626231035.1,286046996.6,N
1626231036.0,286046996.6,N
1626231055.8,286046998.9,N
1626231075.7,286046997.0,N
1626231095.5,286046998.0,N
1626231115.3,286046997.6,N
1626231135.2,286046996.9,N
1626231155.9,286046997.5,N
1626231175.7,286046996.8,N
1626231195.6,286046999.1,N
1626231215.4,286046999.2,N
1626231235.3,286046998.7,N
1626231255.1,286046998.1,N
1626231275.8,286046998.3,N
1626231295.7,286046999.2,N
1626231315.5,286046998.2,N
1626231335.4,286046998.2,N
1626231355.2,286047001.2,N
1626231375.0,286047000.0,N
1626231375.9,286047000.0,N
1626231395.8,286046999.8,N
1626231415.6,286047002.1,N
1626231435.4,286047001.9,N
1626231455.3,286047002.2,N
1626231475.1,286047001.1,N
1626231495.9,286047001.2,N
1626231515.7,286047000.9,N
1626231535.5,286046999.9,N
1626231555.4,286046999.7,N
1626231575.2,286047000.0,N
1626231595.0,286047002.4,N
1626231595.9,286047002.4,N
